This is the latest recevied weather packets stored in our database for station/object N3DOU-1. If no packets are shown the sender has not sent any weather packets the latest 10 day(s).
| Time | Temp. | Humidity | Pressure | Rain* | Wind** | Luminosity | Snow |
|---|---|---|---|---|---|---|---|
| 1777775183 | 12.22° C | 54% | 1013.2 hPa | 0 mm | - | - | - |
| 1777774284 | 12.22° C | 53% | 1013.1 hPa | 0 mm | - | - | - |
| 1777773384 | 12.78° C | 52% | 1013 hPa | 0 mm | - | - | - |
| 1777772483 | 12.78° C | 52% | 1013 hPa | 0 mm | - | - | - |
| 1777771584 | 12.78° C | 53% | 1012.9 hPa | 0 mm | - | - | - |
| 1777770683 | 12.78° C | 52% | 1012.8 hPa | 0 mm | - | - | - |
| 1777769782 | 12.78° C | 50% | 1012.5 hPa | 0 mm | - | - | - |
| 1777768883 | 12.78° C | 48% | 1012.3 hPa | 0 mm | - | - | - |
| 1777767984 | 13.33° C | 50% | 1012.1 hPa | 0 mm | - | - | - |
| 1777767084 | 13.33° C | 47% | 1012 hPa | 0 mm | - | - | - |
| 1777766183 | 13.33° C | 46% | 1011.9 hPa | 0 mm | - | - | - |
| 1777765284 | 13.89° C | 46% | 1011.8 hPa | 0 mm | - | - | - |
| 1777764384 | 13.89° C | 44% | 1011.7 hPa | 0 mm | - | - | - |
| 1777763484 | 14.44° C | 46% | 1011.7 hPa | 0 mm | - | - | - |
| 1777762583 | 15° C | 42% | 1011.6 hPa | 0 mm | - | - | - |
| 1777761689 | 15° C | 41% | 1011.6 hPa | 0 mm | - | - | - |
| 1777760783 | 15.56° C | 42% | 1011.5 hPa | 0 mm | - | - | - |
| 1777759882 | 15.56° C | 41% | 1011.5 hPa | 0 mm | - | - | - |
| 1777758983 | 15.56° C | 41% | 1011.5 hPa | 0 mm | - | - | - |
| 1777758082 | 15° C | 42% | 1011.5 hPa | 0 mm | - | - | - |
| 1777757182 | 15.56° C | 43% | 1011.4 hPa | 0 mm | - | - | - |
| 1777756283 | 15.56° C | 41% | 1011.3 hPa | 0 mm | - | - | - |
| 1777754483 | 16.11° C | 39% | 1011.2 hPa | 0 mm | - | - | - |
| 1777753586 | 15.56° C | 42% | 1011.2 hPa | 0 mm | - | - | - |
| 1777752684 | 16.11° C | 43% | 1011.2 hPa | 0 mm | - | - | - |
* Rain latest hour (hover to see other rain measurements)
** Current wind speed in m/s (hover to see current wind gust speed)